Time,TemperatureF,DewpointF,PressureIn,WindDirection,WindDirectionDegrees,WindSpeedMPH,WindSpeedGustMPH,Humidity,HourlyPrecipIn,Conditions,Clouds,dailyrainin,SoftwareType,DateUTC
2013-05-15 00:03:00,70.5,59.0,29.71,WSW,247,3.7,-999.0,67,-99.99,,,0.00,Acu-Link.com,2013-05-15 04:03:00,
2013-05-15 00:18:00,70.5,58.6,29.70,SSE,157,3.7,-999.0,66,-99.99,,,0.00,Acu-Link.com,2013-05-15 04:18:00,
2013-05-15 00:34:00,70.2,58.7,29.70,SSE,157,4.2,-999.0,67,-99.99,,,0.00,Acu-Link.com,2013-05-15 04:34:00,
2013-05-15 00:49:00,69.8,58.3,29.70,South,180,4.7,-999.0,67,-99.99,,,0.00,Acu-Link.com,2013-05-15 04:49:00,
2013-05-15 01:04:00,68.9,58.3,29.71,WSW,247,3.7,-999.0,69,-99.99,,,0.00,Acu-Link.com,2013-05-15 05:04:00,
2013-05-15 01:19:00,68.9,58.3,29.71,West,270,2.7,-999.0,69,-99.99,,,0.00,Acu-Link.com,2013-05-15 05:19:00,
2013-05-15 01:34:00,69.8,58.3,29.70,SSE,157,7.8,-999.0,67,-99.99,,,0.00,Acu-Link.com,2013-05-15 05:34:00,
2013-05-15 01:49:00,70.0,58.5,29.70,West,270,5.8,-999.0,67,-99.99,,,0.00,Acu-Link.com,2013-05-15 05:49:00,
2013-05-15 02:05:00,69.8,58.3,29.70,SSW,202,8.9,-999.0,67,-99.99,,,0.00,Acu-Link.com,2013-05-15 06:05:00,
2013-05-15 02:20:00,69.6,58.6,29.70,SW,225,6.3,-999.0,68,-99.99,,,0.00,Acu-Link.com,2013-05-15 06:20:00,
2013-05-15 02:35:00,69.1,58.5,29.69,ESE,112,4.7,-999.0,69,-99.99,,,0.00,Acu-Link.com,2013-05-15 06:35:00,
2013-05-15 02:50:00,69.3,58.7,29.70,WSW,247,4.7,-999.0,69,-99.99,,,0.00,Acu-Link.com,2013-05-15 06:50:00,
2013-05-15 03:05:00,69.1,58.5,29.69,SW,225,4.2,-999.0,69,-99.99,,,0.00,Acu-Link.com,2013-05-15 07:05:00,
2013-05-15 03:20:00,68.9,58.3,29.69,NNW,337,8.9,-999.0,69,-99.99,,,0.00,Acu-Link.com,2013-05-15 07:20:00,
2013-05-15 03:36:00,69.3,58.7,29.69,WSW,247,7.8,-999.0,69,-99.99,,,0.00,Acu-Link.com,2013-05-15 07:36:00,
2013-05-15 03:51:00,69.3,58.7,29.69,West,270,8.3,-999.0,69,-99.99,,,0.00,Acu-Link.com,2013-05-15 07:51:00,
2013-05-15 04:06:00,69.3,58.3,29.69,WSW,247,6.8,-999.0,68,-99.99,,,0.00,Acu-Link.com,2013-05-15 08:06:00,
2013-05-15 04:22:00,69.4,58.4,29.69,West,270,3.7,-999.0,68,-99.99,,,0.00,Acu-Link.com,2013-05-15 08:22:00,
2013-05-15 04:37:00,68.9,58.3,29.69,WSW,247,5.8,-999.0,69,-99.99,,,0.00,Acu-Link.com,2013-05-15 08:37:00,
2013-05-15 04:52:00,68.7,58.1,29.70,WSW,247,8.3,-999.0,69,-99.99,,,0.00,Acu-Link.com,2013-05-15 08:52:00,
2013-05-15 05:07:00,68.4,58.2,29.70,SSW,202,4.7,-999.0,70,-99.99,,,0.00,Acu-Link.com,2013-05-15 09:07:00,
2013-05-15 05:22:00,68.4,57.8,29.71,WSW,247,6.3,-999.0,69,-99.99,,,0.00,Acu-Link.com,2013-05-15 09:22:00,
2013-05-15 05:37:00,68.4,57.8,29.71,NNW,337,4.2,-999.0,69,-99.99,,,0.00,Acu-Link.com,2013-05-15 09:37:00,
2013-05-15 05:52:00,68.2,57.6,29.71,SSW,202,5.8,-999.0,69,-99.99,,,0.00,Acu-Link.com,2013-05-15 09:52:00,
2013-05-15 06:07:00,68.0,57.4,29.72,South,180,6.8,-999.0,69,-99.99,,,0.00,Acu-Link.com,2013-05-15 10:07:00,
2013-05-15 06:23:00,67.6,57.5,29.72,West,270,5.8,-999.0,70,-99.99,,,0.00,Acu-Link.com,2013-05-15 10:23:00,
2013-05-15 06:38:00,67.5,57.4,29.73,East,90,4.2,-999.0,70,-99.99,,,0.00,Acu-Link.com,2013-05-15 10:38:00,
2013-05-15 06:53:00,67.3,57.2,29.73,West,270,4.2,-999.0,70,-99.99,,,0.00,Acu-Link.com,2013-05-15 10:53:00,
2013-05-15 07:09:00,67.8,57.7,29.74,SSW,202,6.3,-999.0,70,-99.99,,,0.00,Acu-Link.com,2013-05-15 11:09:00,
2013-05-15 07:24:00,67.8,57.7,29.74,WSW,247,5.8,-999.0,70,-99.99,,,0.00,Acu-Link.com,2013-05-15 11:24:00,
2013-05-15 07:39:00,68.2,58.0,29.75,South,180,6.3,-999.0,70,-99.99,,,0.00,Acu-Link.com,2013-05-15 11:39:00,
2013-05-15 07:54:00,68.5,57.9,29.76,West,270,6.8,-999.0,69,-99.99,,,0.00,Acu-Link.com,2013-05-15 11:54:00,
2013-05-15 08:10:00,69.1,58.1,29.75,West,270,5.8,-999.0,68,-99.99,,,0.00,Acu-Link.com,2013-05-15 12:10:00,
2013-05-15 08:25:00,69.4,58.4,29.76,WSW,247,4.2,-999.0,68,-99.99,,,0.00,Acu-Link.com,2013-05-15 12:25:00,
2013-05-15 08:40:00,70.0,58.5,29.77,West,270,6.3,-999.0,67,-99.99,,,0.00,Acu-Link.com,2013-05-15 12:40:00,
2013-05-15 08:55:00,70.7,58.8,29.77,West,270,7.3,-999.0,66,-99.99,,,0.00,Acu-Link.com,2013-05-15 12:55:00,
2013-05-15 09:10:00,71.4,59.0,29.77,West,270,6.3,-999.0,65,-99.99,,,0.00,Acu-Link.com,2013-05-15 13:10:00,
2013-05-15 09:25:00,72.3,59.9,29.78,West,270,3.7,-999.0,65,-99.99,,,0.00,Acu-Link.com,2013-05-15 13:25:00,
2013-05-15 09:40:00,73.0,60.1,29.78,WNW,292,5.3,-999.0,64,-99.99,,,0.00,Acu-Link.com,2013-05-15 13:40:00,
2013-05-15 09:55:00,73.6,60.2,29.77,West,270,6.8,-999.0,63,-99.99,,,0.00,Acu-Link.com,2013-05-15 13:55:00,
2013-05-15 10:41:00,76.3,61.4,29.77,SSE,157,3.7,-999.0,60,-99.99,,,0.00,Acu-Link.com,2013-05-15 14:41:00,
2013-05-15 11:12:00,77.4,61.4,29.77,West,270,8.3,-999.0,58,-99.99,,,0.00,Acu-Link.com,2013-05-15 15:12:00,
2013-05-15 11:27:00,78.4,61.4,29.76,West,270,4.7,-999.0,56,-99.99,,,0.00,Acu-Link.com,2013-05-15 15:27:00,
2013-05-15 11:57:00,78.4,61.4,29.77,SW,225,8.3,-999.0,56,-99.99,,,0.00,Acu-Link.com,2013-05-15 15:57:00,
2013-05-15 12:12:00,79.9,61.7,29.77,WSW,247,6.8,-999.0,54,-99.99,,,0.00,Acu-Link.com,2013-05-15 16:12:00,
2013-05-15 12:27:00,79.7,62.1,29.77,SW,225,4.7,-999.0,55,-99.99,,,0.00,Acu-Link.com,2013-05-15 16:27:00,
2013-05-15 12:42:00,80.2,62.0,29.76,West,270,4.2,-999.0,54,-99.99,,,0.00,Acu-Link.com,2013-05-15 16:42:00,
2013-05-15 12:57:00,81.1,61.2,29.76,West,270,8.3,-999.0,51,-99.99,,,0.00,Acu-Link.com,2013-05-15 16:57:00,
2013-05-15 13:12:00,82.6,62.0,29.76,SSE,157,4.2,-999.0,50,-99.99,,,0.00,Acu-Link.com,2013-05-15 17:12:00,
2013-05-15 13:28:00,82.6,61.5,29.75,SW,225,6.3,-999.0,49,-99.99,,,0.00,Acu-Link.com,2013-05-15 17:28:00,
2013-05-15 13:43:00,82.4,61.9,29.76,SW,225,7.8,-999.0,50,-99.99,,,0.00,Acu-Link.com,2013-05-15 17:43:00,
2013-05-15 13:58:00,82.9,60.6,29.75,WSW,247,8.9,-999.0,47,-99.99,,,0.00,Acu-Link.com,2013-05-15 17:58:00,
2013-05-15 14:28:00,83.7,61.9,29.74,South,180,3.2,-999.0,48,-99.99,,,0.00,Acu-Link.com,2013-05-15 18:28:00,
2013-05-15 14:43:00,84.2,60.5,29.74,WSW,247,5.8,-999.0,45,-99.99,,,0.00,Acu-Link.com,2013-05-15 18:43:00,
2013-05-15 15:14:00,84.2,59.2,29.72,West,270,4.7,-999.0,43,-99.99,,,0.00,Acu-Link.com,2013-05-15 19:14:00,
2013-05-15 15:29:00,84.4,58.8,29.73,West,270,5.8,-999.0,42,-99.99,,,0.00,Acu-Link.com,2013-05-15 19:29:00,
2013-05-15 15:44:00,84.4,58.8,29.71,WSW,247,6.8,-999.0,42,-99.99,,,0.00,Acu-Link.com,2013-05-15 19:44:00,
2013-05-15 15:59:00,84.0,56.3,29.71,SW,225,9.4,-999.0,39,-99.99,,,0.00,Acu-Link.com,2013-05-15 19:59:00,
2013-05-15 16:15:00,85.3,57.5,29.70,WSW,247,5.8,-999.0,39,-99.99,,,0.00,Acu-Link.com,2013-05-15 20:15:00,
2013-05-15 16:30:00,84.9,58.5,29.70,South,180,4.7,-999.0,41,-99.99,,,0.00,Acu-Link.com,2013-05-15 20:30:00,
2013-05-15 16:45:00,84.9,57.1,29.68,ESE,112,7.3,-999.0,39,-99.99,,,0.00,Acu-Link.com,2013-05-15 20:45:00,
2013-05-15 17:00:00,84.4,56.7,29.67,West,270,6.3,-999.0,39,-99.99,,,0.00,Acu-Link.com,2013-05-15 21:00:00,
2013-05-15 17:15:00,84.0,58.4,29.68,WSW,247,4.2,-999.0,42,-99.99,,,0.00,Acu-Link.com,2013-05-15 21:15:00,
2013-05-15 17:30:00,83.7,58.8,29.67,SSW,202,10.9,-999.0,43,-99.99,,,0.00,Acu-Link.com,2013-05-15 21:30:00,
2013-05-15 17:45:00,83.7,59.4,29.67,SW,225,10.4,-999.0,44,-99.99,,,0.00,Acu-Link.com,2013-05-15 21:45:00,
2013-05-15 18:00:00,84.0,60.3,29.67,WSW,247,9.4,-999.0,45,-99.99,,,0.00,Acu-Link.com,2013-05-15 22:00:00,
2013-05-15 18:16:00,83.5,59.3,29.67,WSW,247,8.9,-999.0,44,-99.99,,,0.00,Acu-Link.com,2013-05-15 22:16:00,
2013-05-15 18:31:00,82.9,58.7,29.67,SSW,202,3.7,-999.0,44,-99.99,,,0.00,Acu-Link.com,2013-05-15 22:31:00,
2013-05-15 18:46:00,82.6,58.5,29.67,WSW,247,5.3,-999.0,44,-99.99,,,0.00,Acu-Link.com,2013-05-15 22:46:00,
2013-05-15 19:01:00,81.9,57.2,29.67,WSW,247,8.3,-999.0,43,-99.99,,,0.00,Acu-Link.com,2013-05-15 23:01:00,
2013-05-15 19:17:00,81.1,56.5,29.67,SSE,157,6.3,-999.0,43,-99.99,,,0.00,Acu-Link.com,2013-05-15 23:17:00,
2013-05-15 19:32:00,80.2,55.7,29.67,South,180,4.7,-999.0,43,-99.99,,,0.00,Acu-Link.com,2013-05-15 23:32:00,
2013-05-15 19:47:00,79.9,53.4,29.67,SW,225,7.8,-999.0,40,-99.99,,,0.00,Acu-Link.com,2013-05-15 23:47:00,
2013-05-15 20:02:00,79.0,51.2,29.68,West,270,7.8,-999.0,38,-99.99,,,0.00,Acu-Link.com,2013-05-16 00:02:00,
2013-05-15 20:48:00,75.7,51.0,29.69,SSE,157,7.3,-999.0,42,-99.99,,,0.00,Acu-Link.com,2013-05-16 00:48:00,
2013-05-15 21:03:00,75.6,51.5,29.68,West,270,3.7,-999.0,43,-99.99,,,0.00,Acu-Link.com,2013-05-16 01:03:00,
2013-05-15 21:34:00,74.3,51.6,29.69,West,270,6.3,-999.0,45,-99.99,,,0.00,Acu-Link.com,2013-05-16 01:34:00,
2013-05-15 22:04:00,73.2,51.7,29.70,SE,135,3.2,-999.0,47,-99.99,,,0.00,Acu-Link.com,2013-05-16 02:04:00,
2013-05-15 22:20:00,73.4,50.8,29.71,SW,225,4.7,-999.0,45,-99.99,,,0.00,Acu-Link.com,2013-05-16 02:20:00,
2013-05-15 22:35:00,72.9,50.3,29.70,West,270,4.7,-999.0,45,-99.99,,,0.00,Acu-Link.com,2013-05-16 02:35:00,
2013-05-15 22:50:00,72.1,50.2,29.70,SSW,202,2.7,-999.0,46,-99.99,,,0.00,Acu-Link.com,2013-05-16 02:50:00,
2013-05-15 23:06:00,71.4,50.7,29.71,SSW,202,2.2,-999.0,48,-99.99,,,0.00,Acu-Link.com,2013-05-16 03:06:00,
2013-05-15 23:36:00,70.5,49.9,29.70,WSW,247,4.7,-999.0,48,-99.99,,,0.00,Acu-Link.com,2013-05-16 03:36:00,